Simultaneous Nadir Overpasses (SNOs) Predictions

Prediction of SNOs between GOES-16 and LANDSAT-8 Satellite Orbit:

Table of predicted SNOs for the next 14.0 days since TLE Epoch: 5/22/2020
Index Date Time (GOES-16) GOES-16 Lat,Lon LANDSAT-8 Lat,Lon Distance(km) Time Diff (sec)
1 05/23/2020 03:02:58 -0.03, -75.19 0.40, -73.19 227.24 80
2 05/23/2020 15:24:13 0.02, -75.21 0.68, -78.35 357.06 80
3 05/25/2020 15:12:02 0.02, -75.20 0.05, -75.39 20.82 80
4 05/27/2020 15:02:31 0.01, -75.21 -0.57, -72.43 315.70 80
5 05/28/2020 03:23:55 -0.01, -75.19 -0.54, -77.62 276.41 80
6 05/30/2020 03:09:04 -0.01, -75.20 0.09, -74.66 60.88 80
7 06/01/2020 02:56:53 -0.00, -75.21 0.72, -71.70 398.77 80
8 06/01/2020 15:18:09 0.00, -75.23 0.36, -76.86 185.13 80
9 06/03/2020 15:08:38 -0.00, -75.25 -0.27, -73.90 153.41 80
10 06/04/2020 03:30:02 0.00, -75.24 -0.84, -79.09 438.01 80
11 06/05/2020 14:56:27 -0.01, -75.28 -0.91, -70.94 492.19 80




NCC Satellite Simultaneous Nadir Overpasses (SNOs) Prediction Service
